Waarnemingen

Advertentie
Mijn weer
Socoa, Frankrijk (7600): temperatuur & dauwpunt: 22.06.2017 05:00:00 - 28.06.2017 05:00:00 (CEST)Socoa, Frankrijk (7600): windsnelheid & windstoten: 22.06.2017 05:00:00 - 28.06.2017 05:00:00 (CEST)Socoa, Frankrijk (7600): windrichting: 22.06.2017 05:00:00 - 28.06.2017 05:00:00 (CEST)Socoa, Frankrijk (7600): luchtdruk: 22.06.2017 05:00:00 - 28.06.2017 05:00:00 (CEST)Socoa, Frankrijk (7600): zicht: 22.06.2017 05:00:00 - 28.06.2017 05:00:00 (CEST)Socoa, Frankrijk (7600): neerslag: 22.06.2017 05:00:00 - 28.06.2017 05:00:00 (CEST)
Datum & Tijd tt [°C] td [°C] ff [km/u] ff [kn] fx [km/u] fx [kn] dd ppp [hPa] vv [km] rr [mm]
28.06.2017 05:00:00 16,8 15,3 14 8 26 14 ZZW 1007,9 18 0,0
28.06.2017 04:00:00 17,1 15,8 16 9 34 18 ZW 1008,1 - 1,2
28.06.2017 03:00:00 17,7 16,0 17 9 31 17 ZW 1008,9 - 0,6
28.06.2017 02:00:00 18,0 15,8 19 10 25 13 ZW 1009,1 20 0,2
28.06.2017 01:00:00 18,5 16,7 14 8 18 10 ZZW 1009,7 20 0,0
28.06.2017 00:00:00 18,6 16,2 11 6 18 10 W 1010,1 - 0,0
27.06.2017 23:00:00 18,5 16,1 8 4 16 9 ZW 1010,2 - 0,0
27.06.2017 22:00:00 19,2 15,5 13 7 30 16 WZW 1009,6 - 0,0
27.06.2017 21:00:00 20,4 16,2 23 12 42 23 W 1009,3 - 0,0
27.06.2017 20:00:00 20,6 16,4 26 14 44 24 W 1009,2 20 0,0
27.06.2017 19:00:00 20,8 16,6 30 16 39 21 W 1009,1 - 0,0
27.06.2017 18:00:00 20,7 18,6 23 12 40 22 WNW 1009,3 - 0,8
27.06.2017 17:00:00 20,1 17,9 34 18 47 26 WNW 1010,0 - 0,4
27.06.2017 16:00:00 20,8 18,2 33 18 45 25 WNW 1009,3 - 0,0
27.06.2017 15:00:00 21,6 18,2 32 17 42 23 NW 1008,8 - 0,0
27.06.2017 14:00:00 22,0 18,2 24 13 31 17 WNW 1009,0 - 0,0
27.06.2017 13:00:00 21,9 17,3 17 9 23 12 WNW 1008,8 - 0,0
27.06.2017 12:00:00 21,9 18,1 12 7 20 11 WNW 1008,8 - 0,0
27.06.2017 11:00:00 21,6 17,2 12 7 19 10 WNW 1009,3 - 0,0
27.06.2017 10:00:00 22,2 17,8 8 4 13 7 W 1009,3 - 0,0
27.06.2017 09:00:00 20,0 17,8 6 3 11 6 WZW 1009,7 - 0,0
27.06.2017 08:00:00 19,0 17,5 9 5 13 7 Z 1009,7 15 0,0
27.06.2017 07:00:00 18,4 17,4 10 5 15 8 ZZW 1009,7 - 0,0
27.06.2017 06:00:00 18,1 17,3 11 6 14 8 ZW 1010,2 - 0,0
27.06.2017 05:00:00 18,4 17,2 9 5 14 8 ZW 1010,6 - 0,0
27.06.2017 04:00:00 18,8 17,5 10 5 15 8 ZW 1011,1 - 0,0
27.06.2017 03:00:00 18,8 17,5 8 5 11 6 ZW 1011,3 - 0,0
27.06.2017 02:00:00 19,3 17,8 8 4 14 8 W 1011,6 15 0,0
27.06.2017 01:00:00 19,4 17,4 10 5 20 11 WZW 1012,1 - 0,0
27.06.2017 00:00:00 20,6 18,0 16 9 31 17 W 1012,6 - 0,0
26.06.2017 23:00:00 21,2 18,2 24 13 35 19 W 1012,4 20 0,0
26.06.2017 22:00:00 21,5 18,5 23 12 36 19 W 1012,2 - 0,0
26.06.2017 21:00:00 22,1 17,9 24 13 36 19 W 1012,1 - 0,0
26.06.2017 20:00:00 21,8 19,0 20 11 42 23 W 1012,1 20 0,0
26.06.2017 19:00:00 21,8 19,2 31 17 46 25 W 1012,0 - 0,0
26.06.2017 18:00:00 22,8 19,4 35 19 44 24 W 1011,8 - 0,0
26.06.2017 17:00:00 23,8 19,1 29 16 41 22 W 1011,2 10 0,0
26.06.2017 16:00:00 22,7 19,9 30 16 - - W 1011,2 - 0,0
26.06.2017 15:00:00 24,2 20,7 22 12 45 24 W 1010,8 - 1,6
26.06.2017 14:00:00 22,7 16,9 33 18 66 36 W 1011,0 - 0,0
26.06.2017 13:00:00 27,7 18,7 5 3 28 15 NNO 1010,0 - 0,0
26.06.2017 12:00:00 27,2 16,5 16 8 33 18 Z 1010,2 - 0,0
26.06.2017 11:00:00 24,6 18,3 9 5 22 12 Z 1010,0 - 0,0
26.06.2017 10:00:00 21,2 19,3 8 4 13 7 Z 1010,0 - 0,0
26.06.2017 09:00:00 20,7 19,9 8 4 15 8 ZW 1010,1 - 0,0
26.06.2017 08:00:00 19,9 19,2 6 3 14 7 ZZO 1010,3 12 0,0
26.06.2017 07:00:00 19,7 19,0 5 3 20 11 O 1010,1 - 0,0
26.06.2017 06:00:00 19,9 19,2 13 7 18 10 Z 1010,1 - 0,0
26.06.2017 05:00:00 19,9 18,9 10 6 27 14 ZW 1011,2 - 0,0
26.06.2017 04:00:00 19,9 18,9 13 7 34 18 WZW 1011,2 - 0,0
26.06.2017 03:00:00 20,2 19,2 21 11 34 18 O 1010,3 - 1,0
26.06.2017 02:00:00 20,3 19,3 10 6 17 9 ZO 1012,9 - 0,2
26.06.2017 01:00:00 20,3 19,1 7 4 14 8 ZZW 1013,5 - 0,0
26.06.2017 00:00:00 20,5 19,2 11 6 16 9 ZZW 1014,7 - 0,0
25.06.2017 23:00:00 21,4 19,5 3 1 9 5 W 1014,9 - 0,4
25.06.2017 22:00:00 21,8 18,6 7 4 21 12 ZO 1015,2 - 0,0
25.06.2017 21:00:00 21,8 17,8 17 9 27 14 NO 1014,9 - 0,0
25.06.2017 20:00:00 22,2 18,2 23 13 29 16 NNO 1014,8 - 0,0
25.06.2017 19:00:00 22,4 17,7 22 12 32 17 N 1015,4 - 0,0
25.06.2017 18:00:00 24,8 17,5 16 8 31 17 NO 1015,8 - 0,0
25.06.2017 17:00:00 23,9 16,2 23 12 34 18 OZO 1016,4 - 0,0
25.06.2017 16:00:00 24,9 16,9 20 11 38 20 OZO 1017,1 - 0,0
25.06.2017 15:00:00 25,3 16,2 22 12 37 20 O 1017,7 - 0,0
25.06.2017 14:00:00 24,6 15,5 13 7 33 18 OZO 1018,3 20 0,0
25.06.2017 13:00:00 24,5 16,0 17 9 31 17 O 1019,1 - 0,0
25.06.2017 12:00:00 23,8 15,3 19 10 33 18 O 1019,5 - 0,0
25.06.2017 11:00:00 23,3 16,1 14 7 30 16 O 1019,9 20 0,0
25.06.2017 10:00:00 22,2 16,0 22 12 32 17 OZO 1020,1 - 0,0
25.06.2017 09:00:00 20,1 15,5 14 8 21 11 OZO 1020,7 - 0,0
25.06.2017 08:00:00 18,7 15,4 6 3 17 9 OZO 1021,0 20 0,0
25.06.2017 07:00:00 17,5 16,0 10 5 13 7 ZO 1020,3 - 0,0
25.06.2017 06:00:00 16,6 15,0 6 3 11 6 Z 1020,7 - 0,0
25.06.2017 05:00:00 16,3 14,8 11 6 13 7 Z 1021,0 - 0,0
25.06.2017 04:00:00 16,7 15,2 11 6 12 6 Z 1021,1 - 0,0
25.06.2017 03:00:00 17,3 15,3 9 5 12 6 ZZW 1021,8 - 0,0
25.06.2017 02:00:00 18,2 15,8 7 4 13 7 ZZW 1022,2 20 0,0
25.06.2017 01:00:00 19,9 14,7 7 4 15 8 NNW 1022,8 - 0,0
25.06.2017 00:00:00 20,6 14,7 12 6 21 11 NNW 1022,9 - 0,0
24.06.2017 23:00:00 20,7 14,8 8 5 18 10 NNW 1022,9 - 0,0
24.06.2017 22:00:00 21,0 15,5 10 5 16 8 N 1022,4 - 0,0
24.06.2017 21:00:00 21,1 15,0 10 5 18 10 NNO 1021,6 - 0,0
24.06.2017 20:00:00 21,7 15,5 10 5 24 13 N 1021,6 - 0,0
24.06.2017 19:00:00 21,8 16,1 14 8 29 16 N 1021,7 - 0,0
24.06.2017 18:00:00 22,4 16,2 19 11 28 15 NNW 1022,0 - 0,0
24.06.2017 17:00:00 23,0 15,6 17 9 27 15 N 1021,9 - 0,0
24.06.2017 16:00:00 23,4 15,4 14 8 22 12 N 1021,8 - 0,0
24.06.2017 15:00:00 24,1 15,8 12 7 16 9 NNO 1022,1 - 0,0
24.06.2017 14:00:00 24,4 15,6 10 6 16 9 NNO 1022,2 20 0,0
24.06.2017 13:00:00 24,3 15,2 7 4 21 11 NNO 1022,5 - 0,0
24.06.2017 12:00:00 24,3 15,8 13 7 23 12 O 1022,3 - 0,0
24.06.2017 11:00:00 22,6 15,4 11 6 19 11 OZO 1022,4 20 0,0
24.06.2017 10:00:00 21,8 16,3 8 5 14 8 O 1022,8 - 0,0
24.06.2017 09:00:00 20,2 16,0 6 4 14 7 O 1023,0 - 0,0
24.06.2017 08:00:00 19,7 16,7 10 5 23 12 ZO 1022,9 17 0,0
24.06.2017 07:00:00 19,5 16,7 10 6 17 9 ZO 1022,9 - 0,0
24.06.2017 06:00:00 19,5 16,9 10 6 14 8 ZO 1023,0 - 0,0
24.06.2017 05:00:00 19,4 16,6 7 4 10 6 ZO 1023,2 20 0,0
24.06.2017 04:00:00 19,3 16,9 5 3 8 4 Z 1024,1 - 0,0
24.06.2017 03:00:00 20,1 16,1 4 2 13 7 NO 1024,4 - 0,0
24.06.2017 02:00:00 20,5 15,3 8 4 14 8 N 1024,8 20 0,0
24.06.2017 01:00:00 20,4 15,6 8 5 19 10 N 1025,2 - 0,0
24.06.2017 00:00:00 20,8 16,0 9 5 15 8 N 1025,4 - 0,0
23.06.2017 23:00:00 20,8 16,2 10 6 17 9 NNO 1025,3 20 0,0
23.06.2017 22:00:00 20,8 16,6 7 4 13 7 N 1024,7 - 0,0
23.06.2017 21:00:00 21,0 17,2 6 4 16 9 NNW 1024,4 - 0,0
23.06.2017 20:00:00 21,4 16,8 6 3 16 9 WNW 1024,2 15 0,0
23.06.2017 19:00:00 21,8 16,3 7 4 16 9 NW 1023,9 - 0,0
23.06.2017 18:00:00 21,9 16,0 11 6 21 11 NW 1024,0 - 0,0
23.06.2017 17:00:00 21,9 16,6 14 8 23 12 NNW 1024,0 18 0,0
23.06.2017 16:00:00 21,8 16,5 15 8 21 11 NNW 1023,9 - 0,0
23.06.2017 15:00:00 22,1 16,6 14 8 24 13 WNW 1023,7 - 0,0
23.06.2017 14:00:00 22,2 18,2 18 10 25 14 WNW 1023,9 - 0,0
23.06.2017 13:00:00 22,0 18,0 16 9 22 12 WNW 1024,1 - 0,0
23.06.2017 12:00:00 21,3 18,3 18 10 23 13 W 1024,2 - 0,0
23.06.2017 11:00:00 20,8 18,7 9 5 17 9 WZW 1024,3 12 0,0
23.06.2017 10:00:00 19,4 18,1 11 6 18 10 ZW 1024,1 - 0,0
23.06.2017 09:00:00 19,0 18,0 6 3 17 9 ZZW 1023,8 - 0,2
23.06.2017 08:00:00 18,8 18,0 12 6 18 10 ZW 1023,4 - 0,0
23.06.2017 07:00:00 18,7 17,9 8 4 18 10 ZZW 1023,2 - 0,2
23.06.2017 06:00:00 19,0 18,2 16 9 27 15 WZW 1022,9 - 0,0
23.06.2017 05:00:00 19,4 18,2 13 7 29 16 WZW 1022,9 15 0,0
23.06.2017 04:00:00 19,5 18,8 20 11 31 17 W 1022,7 - 0,2
23.06.2017 03:00:00 19,4 18,6 17 9 36 20 W 1022,9 - 0,6
23.06.2017 02:00:00 20,0 19,0 25 14 39 21 W 1022,8 17 0,2
23.06.2017 01:00:00 20,7 17,5 29 16 39 21 WNW 1022,5 - 0,0
23.06.2017 00:00:00 20,5 17,9 30 16 37 20 WNW 1022,1 - 0,0
22.06.2017 23:00:00 20,0 18,7 18 10 33 18 W 1021,9 12 0,2
22.06.2017 22:00:00 19,8 18,6 15 8 34 19 W 1021,4 - 0,0
22.06.2017 21:00:00 20,0 18,5 24 13 39 21 W 1021,1 - 0,0
22.06.2017 20:00:00 20,7 18,8 26 14 41 22 W 1020,6 - 0,0
22.06.2017 19:00:00 21,0 18,6 26 14 36 20 W 1019,8 - 0,0
22.06.2017 18:00:00 21,1 18,8 28 15 40 22 WNW 1020,0 - 0,0
22.06.2017 17:00:00 21,3 18,7 26 14 32 17 WNW 1020,0 8 0,0
22.06.2017 16:00:00 21,5 18,9 23 12 31 17 W 1019,8 - 0,0
22.06.2017 15:00:00 21,8 19,2 20 11 - - WNW 1019,8 - 0,0
22.06.2017 14:00:00 21,7 18,9 - - - - - 1019,5 - 0,0
22.06.2017 13:00:00 21,7 19,1 14 7 22 12 NW 1019,3 - 0,0
22.06.2017 12:00:00 21,7 19,4 16 9 - - WNW 1019,2 - 0,0
22.06.2017 11:00:00 21,7 19,3 17 9 23 13 WNW 1019,1 - 0,0
22.06.2017 10:00:00 21,5 19,2 18 10 27 14 NW 1018,7 - 0,0
22.06.2017 09:00:00 21,5 19,4 20 11 30 16 WNW 1018,3 - 0,0
22.06.2017 08:00:00 21,4 19,5 23 12 34 18 WNW 1017,8 5 0,0
22.06.2017 07:00:00 21,3 19,8 26 14 37 20 WNW 1017,3 - 0,0
22.06.2017 06:00:00 21,6 20,4 31 17 41 22 W 1016,9 - 0,0
22.06.2017 05:00:00 21,9 21,2 27 14 34 18 W 1016,3 17 0,0

tt = temperatuur
td = dauwpunt
ff = windsnelheid
fx = windstoten
dd = windrichting
ppp = luchtdruk
vv = zicht
rr = neerslag

Weerstations in de omgeving